North Platte, NE

4:59 AM CDT on March 30, 2017 (GMT -0500)
North Platte Regional-Bird

Weather History for KLBF - April, 2013

Change the Weather History Date:

Monday, April 1, 2013

  Actual Average Record
Temperature  
Mean Temperature 41 °F 43 °F  
Max Temperature 51 °F 58 °F 88 °F (2012)
Min Temperature 30 °F 28 °F 10 °F (1975)
Degree Days  
Heating Degree Days 24 22  
Month to date heating degree days 24 22  
Since 1 July heating degree days 5857 5887  
Cooling Degree Days 0 0  
Month to date cooling degree days 0 0  
Year to date cooling degree days 0 0  
Moisture  
Dew Point 24 °F    
Average Humidity 55    
Maximum Humidity 78    
Minimum Humidity 32    
Precipitation  
Precipitation 0.00 in 0.05 in 0.58 in (1905)
Month to date precipitation 0.00 0.05  
Year to date precipitation 1.77 1.94  
Snow  
Snow 0.00 in 0.20 in 3.50 in (1980)
Month to date snowfall 0.0 0.2  
Since 1 July snowfall 22.6 25.5  
Snow Depth 0.00 in    
Sea Level Pressure  
Sea Level Pressure 30.23 in    
Wind  
Wind Speed 7 mph (NE)    
Max Wind Speed 17 mph    
Max Gust Speed 22 mph    
Visibility 10 miles    
Events      
T = Trace of Precipitation, MM = Missing Value Source: NWS Daily Summary

Daily Weather History Graph

Daily Weather History Graph

Search for Another Location

Airport or City:

Trip Planner

Search our weather history database for the weather conditions in past years. The results will help you decide how hot, cold, wet, or windy it might be!

Date:

Astronomy

Apr. 01, 2013 Rise Set
Actual Time 7:25 AM CDT 8:08 PM CDT
Civil Twilight 6:57 AM CDT 8:35 PM CDT
Nautical Twilight 6:24 AM CDT 9:08 PM CDT
Astronomical Twilight 5:50 AM CDT 9:43 PM CDT
Moon 1:20 AM CDT (4/1) 11:11 AM CDT (4/1)
Length of Visible Light 13h 38m
Length of Day
12h 42m
Waning Gibbous, 67% of the Moon is Illuminated
Apr 1
Waning Gibbous
Apr 2
Last Quarter
Apr 10
New
Apr 18
First Quarter
Apr 25
Full

Hourly Weather History & Observations

Time (CDT) Temp. Windchill Dew Point Humidity Pressure Visibility Wind Dir Wind Speed Gust Speed Precip Events Conditions
12:53 AM 33.1 °F 22.6 °F 26.1 °F 75% 30.18 in 10.0 mi NE 16.1 mph - N/A   Clear
1:14 AM 33.8 °F 27.7 °F 26.6 °F 75% 30.18 in 10.0 mi NE 6.9 mph - N/A   Mostly Cloudy
1:42 AM 32.0 °F 22.1 °F 26.6 °F 80% 30.18 in 10.0 mi NNE 13.8 mph - N/A   Overcast
1:53 AM 32.0 °F 22.5 °F 26.1 °F 79% 30.19 in 10.0 mi NE 12.7 mph - N/A   Overcast
2:53 AM 32.0 °F 21.6 °F 26.1 °F 79% 30.20 in 10.0 mi North 15.0 mph - N/A   Overcast
3:06 AM 32.0 °F 23.0 °F 24.8 °F 75% 30.20 in 10.0 mi NNE 11.5 mph - N/A   Overcast
3:53 AM 32.0 °F 24.2 °F 25.0 °F 75% 30.22 in 10.0 mi NNE 9.2 mph - N/A   Overcast
4:53 AM 32.0 °F 25.6 °F 26.1 °F 79% 30.22 in 10.0 mi North 6.9 mph - N/A   Overcast
5:19 AM 32.0 °F 25.6 °F 24.8 °F 75% 30.21 in 10.0 mi North 6.9 mph - N/A   Overcast
5:53 AM 32.0 °F 24.2 °F 25.0 °F 75% 30.20 in 10.0 mi NNE 9.2 mph - N/A   Overcast
6:53 AM 30.0 °F 26.5 °F 25.0 °F 82% 30.23 in 10.0 mi East 3.5 mph - N/A   Mostly Cloudy
7:53 AM 30.0 °F - 25.0 °F 82% 30.27 in 10.0 mi Calm Calm - N/A   Scattered Clouds
8:53 AM 33.1 °F - 26.1 °F 75% 30.30 in 10.0 mi Calm Calm - N/A   Clear
9:53 AM 37.0 °F 31.0 °F 23.0 °F 57% 30.30 in 10.0 mi North 8.1 mph - N/A   Clear
10:53 AM 39.0 °F 34.0 °F 21.9 °F 50% 30.30 in 10.0 mi NE 6.9 mph - N/A   Clear
11:53 AM 42.1 °F 37.1 °F 21.9 °F 45% 30.29 in 10.0 mi NE 8.1 mph 18.4 mph N/A   Partly Cloudy
12:53 PM 44.1 °F 38.6 °F 21.9 °F 42% 30.28 in 10.0 mi NE 10.4 mph - N/A   Scattered Clouds
1:53 PM 48.0 °F - 23.0 °F 37% 30.26 in 10.0 mi NNE 9.2 mph - N/A   Clear
2:53 PM 48.0 °F - 21.9 °F 36% 30.23 in 10.0 mi ENE 8.1 mph - N/A   Partly Cloudy
3:53 PM 50.0 °F - 23.0 °F 35% 30.20 in 10.0 mi North 6.9 mph - N/A   Clear
4:53 PM 50.0 °F - 21.9 °F 33% 30.18 in 10.0 mi NE 9.2 mph - N/A   Clear
5:53 PM 51.1 °F - 23.0 °F 33% 30.16 in 10.0 mi ENE 5.8 mph - N/A   Clear
6:53 PM 50.0 °F - 23.0 °F 35% 30.17 in 10.0 mi ENE 4.6 mph - N/A   Clear
7:53 PM 45.0 °F 41.2 °F 25.0 °F 46% 30.19 in 10.0 mi SE 6.9 mph - N/A   Clear
8:53 PM 41.0 °F 36.4 °F 23.0 °F 49% 30.20 in 10.0 mi ESE 6.9 mph - N/A   Clear
9:53 PM 35.1 °F 29.3 °F 25.0 °F 67% 30.24 in 10.0 mi ESE 6.9 mph - N/A   Clear
10:53 PM 34.0 °F 27.2 °F 25.0 °F 70% 30.25 in 10.0 mi ESE 8.1 mph - N/A   Clear
11:53 PM 30.9 °F 25.2 °F 24.1 °F 76% 30.25 in 10.0 mi East 5.8 mph - N/A   Clear